Flag for Costa Rica Weather past 2 weeks in Liberia, Costa Rica

Now
90 °F

Sunny.


Feels Like: 88 °F
Forecast: 71 / 95 °F
Wind: 5 mph from Northwest

Location: Liberia/Tomas Guard

Current Time: Mar 27, 2015 at 10:21:30 AM

Latest Report: Mar 27, 2015 at 10:00 AM


Visibility: 10 mi

Pressure: 29.92 "Hg

Humidity: 31%

Dew point: 55 °F

Location of LiberiaLocation

Historic Weather in Liberia — Graph

°F

Liberia temperature yesterday

Maximum temperature yesterday: 95 °F (at 12:00 PM)
Minimum temperature yesterday: 68 °F (at 6:00 AM)
Average temperature yesterday: 87 °F

Past Weeks' High & Low Weather Summary

 TemperatureHumidityPressure
High97 °F (Mar 25, 3:00 PM)83% (Mar 22, 6:00 AM)29.98 "Hg (Mar 22, 6:00 AM)
Low64 °F (Mar 27, 6:00 AM)23% (Mar 25, 11:00 AM)29.68 "Hg (Mar 13, 3:00 PM)
Average86 °F44%29.86 "Hg
* Reported Mar 12 9:00 AM — Mar 27 9:00 AM, Liberia, Weather by CustomWeather, © 2015

Note: Actual official high and low records may vary slightly from our data, if they occured in-between our weather recording intervals... More about our weather records

Advertising

Liberia weather history for previous 24 hours

 ConditionsComfort  
Time TempWeatherWind HumidityBarometerVisibility
9:00 AM
Fri, Mar 27
86 °FSunny.3 mph40%29.93 "Hg10 mi
8:00 AM79 °FSunny.3 mph54%29.93 "Hg10 mi
7:00 AM72 °FSunny.3 mph69%29.92 "Hg10 mi
6:00 AM64 °FSunny.6 mph83%29.89 "Hg10 mi
11:00 PM
Thu, Mar 26
79 °FClear.5 mph54%29.90 "Hg10 mi
10:00 PM81 °FClear.7 mph51%29.88 "Hg10 mi
9:00 PM82 °FClear.6 mph48%29.87 "Hg10 mi
8:00 PM84 °FClear.8 mph45%29.84 "Hg10 mi
7:00 PM86 °FClear.7 mph40%29.82 "Hg10 mi
6:00 PM90 °FClear.6 mph36%29.82 "Hg10 mi
5:00 PM95 °FSunny.5 mph28%29.80 "Hg10 mi
4:00 PM95 °FSunny.9 mph26%29.78 "Hg10 mi
3:00 PM95 °FSunny.6 mph25%29.79 "Hg10 mi
2:00 PM95 °FSunny.14 mph28%29.81 "Hg10 mi
1:00 PM95 °FSunny.9 mph25%29.83 "Hg10 mi
12:00 PM95 °FSunny.10 mph26%29.87 "Hg10 mi
11:00 AM91 °FSunny.14 mph30%29.90 "Hg10 mi
10:00 AM91 °FSunny.9 mph32%29.92 "Hg10 mi
Weather by CustomWeather, © 2015

See weather overviewHow to use our weather pages